Regional Weather Roundup
Issued by NWS

Home | Current Version | Previous Version | Graphics & Text | Print | Product List | Glossary On
Versions: 1 2 3 4 5 6 7 8 9 10 11 12 13 14 15 16 17 18 19 20 21 22 23 24 25 26 27 28 29 30 31 32 33 34 35 36 37 38 39 40 41 42 43 44 45 46 47 48 49 50
164
ASUS44 KJAN 052203
RWRMS

MISSISSIPPI HOURLY WEATHER ROUNDUP
NATIONAL WEATHER SERVICE JACKSON MS
400 PM CST THU MAR 05 2015

NOTE: "FAIR: INDICATES FEW OR NO CLOUDS BELOW 12,000 FEET WITH NO
SIGNIFICANT WEATHER AND/OR OBSTRUCTIONS TO VISIBILITY.

MSZ001>002-007>008-010>013-018>021-025>028-034>036-052300-
NORTHWEST MISSISSIPPI

CITY           SKY/WX    TMP DP  RH WIND       PRES   REMARKS
CLARKSDALE     FAIR      30  19  64 CALM      30.53R
CLEVELAND      FAIR      32  20  62 N16       30.52R WCI  21
GREENWOOD      SUNNY     34  20  56 N12G22    30.49R WCI  25
GREENVILLE     SUNNY     33  15  47 MISG      30.51R
OLIVE BRANCH   SUNNY     28  14  54 N17G30    30.51R WCI  16
OXFORD         FAIR      30  14  51 N12G25    30.48R WCI  21
TUNICA         CLEAR     30  19  64 N8        30.55R WCI  23
$$

MSZ003>006-009-014>017-022>024-029>033-037>039-052300-
NORTHEAST MISSISSIPPI

CITY           SKY/WX    TMP DP  RH WIND       PRES   REMARKS
COLUMBUS AFB   PTSUNNY   30  23  75 N14G20    30.42R WCI  19
CORINTH        MIX PCPN  32  12  43 N17G23    30.45R WCI  21
GOLDN TRIANGLE MOSUNNY  N/A N/A N/A N14G23    30.41R
STARKVILLE     FAIR      32  23  69 CALM      30.43R
TUPELO         MOSUNNY   32  16  51 NE16      30.44R WCI  21
$$

MSZ040-058-052300-
CENTRAL MISSISSIPPI

CITY           SKY/WX    TMP DP  RH WIND       PRES   REMARKS
JACKSON INTL   PTSUNNY   33  24  69 NW16      30.43R WCI  23
JACKSON HAWKNS MOSUNNY   32  22  66 N15G22    30.44R WCI  22
MERIDIAN KEY   MIX PCPN  32  26  78 N15       30.38S WCI  22
MERIDIAN NAS   CLOUDY    31  25  78 N15       30.39S WCI  20
VICKSBURG      SUNNY     34  21  59 N20G26    30.50R WCI  23
$$

MSZ059>079-052300-
SOUTH MISSISSIPPI

CITY           SKY/WX    TMP DP  RH WIND       PRES   REMARKS
BROOKHAVEN       N/A     32  32 100 CALM      30.41S
HATTIESBURG    CLOUDY    35  31  85 N12       30.36R WCI  27
MCCOMB         CLOUDY    32  25  75 N21G29    30.37R WCI  20
NATCHEZ        MOSUNNY   30  21  69 N20G26    30.45R WCI  18
PINE BELT      CLOUDY    34  27  75 N15G22    30.36R WCI  24
$$

MSZ080>082-052300-
COASTAL MISSISSIPPI

CITY           SKY/WX    TMP DP  RH WIND       PRES   REMARKS
BAY ST LOUIS   CLOUDY    37  30  75 N14G30    30.29R WCI  29
BILOXI         CLOUDY    41  34  77 N24G32    30.24R
PASCAGOULA     CLOUDY    42  34  73 N20G31    30.24R
GULFPORT       CLOUDY    39  32  76 N23G30    30.27R WCI  28
$$



USA.gov is the U.S. government's official web portal to all federal, state and local government web resources and services.